Tracking 19832 objects as of 25-Aug-2019
HD Live streaming from Space Station
objects crossing your sky now

COSMOS 2251 DEB

Track COSMOS 2251 DEB now!
10-day predictions


NORAD ID: 34061
Int'l Code: 1993-036JY
Perigee: 764.7 km
Apogee: 794.3 km
Inclination: 74.0 °
Period: 100.3 minutes
Semi major axis: 7150 km
RCS: 0.027 m2 (small)
Launch date: June 16, 1993
Source: Commonwealth of Independent States (former USSR) (CIS)
Launch site: PLESETSK MISSILE AND SPACE COMPLEX (PKMTR)

Note: This is SATELLITE DEBRIS
aabbcc
Your satellite tracking list
Your tracking list is empty




NASA's NSSDC Master Catalog

Two Line Element Set (TLE):
1 34061U 93036JY  19236.92155499 +.00000083 +00000-0 +37559-4 0  9994
2 34061 074.0420 175.6283 0020710 101.7431 324.7068 14.35808685551135
Source of the keplerian elements: AFSPC